Location: Newark
(25.0000°N, 73.5000°E)
Time: 04:46:22
(UTC+00:00)

Altair - Pass Details

Date: 03 March 2021
Orbit: 1501 x 1683 km, 47.2° (Epoch: 12 April)

Event Time Altitude Azimuth Distance (km) Brightness Sun altitude
Rises 19:10:41 0° 317° (NW) 4,735 - -71.4°
Reaches altitude 10° 19:14:05 10° 326° (NW) 3,776 - -71.5°
Maximum altitude 19:22:52 38° 32° (NNE) 2,300 - -71.5°
Drops below altitude 10° 19:31:54 10° 97° (E) 3,898 - -71.2°
Sets 19:35:26 0° 105° (ESE) 4,902 - -71.0°
